�N����,����,�~����,�C��,���x,�C��,����,���ϕ���,�ő�u�ԕ���,�ő厞����,���˗�,�I�_���x,�n�����x,�ő啗���N��,DTYPE
"20/03/12","00:10",0.0,6.8,87.5,1014.0,281.9,1.8,2.7,307.5,0.00,4.9,10.5,"00:00:32",1
"20/03/12","00:20",0.0,6.8,87.5,1013.8,306.8,1.8,2.4,314.8,0.00,4.9,10.4,"00:15:04",1
"20/03/12","00:30",0.0,6.6,87.5,1013.8,294.5,1.2,2.5,308.5,0.00,4.7,10.6,"00:29:28",1
"20/03/12","00:40",0.0,6.3,87.5,1014.0,318.7,1.6,2.6,330.7,0.00,4.4,10.4,"00:33:12",1
"20/03/12","00:50",0.0,5.9,87.7,1014.2,295.6,2.1,3.2,277.6,0.00,4.1,10.2,"00:49:22",1
"20/03/12","01:00",0.0,6.0,87.7,1014.0,277.3,2.3,2.9,307.6,0.00,4.2,10.5,"00:50:24",1
"20/03/12","01:10",0.0,6.0,87.4,1014.2,279.4,2.1,2.9,278.6,0.00,4.1,10.4,"01:05:18",1
"20/03/12","01:20",0.0,5.9,87.2,1014.2,295.7,2.1,2.7,307.4,0.00,4.0,10.3,"01:18:56",1
"20/03/12","01:30",0.0,5.8,87.0,1014.2,287.7,2.0,2.6,313.9,0.00,3.8,10.1,"01:28:08",1
"20/03/12","01:40",0.0,5.6,87.0,1014.5,314.5,1.7,2.5,342.1,0.00,3.6,10.0,"01:37:52",1
"20/03/12","01:50",0.0,5.4,87.2,1014.9,324.5,1.7,2.7,324.3,0.00,3.5,10.3,"01:44:16",1
"20/03/12","02:00",0.0,5.3,87.4,1014.7,311.0,2.0,2.6,323.0,0.00,3.4,10.2,"01:50:24",1
"20/03/12","02:10",0.0,5.4,87.8,1014.7,308.1,1.7,2.5,313.6,0.00,3.6,10.1,"02:06:32",1
"20/03/12","02:20",0.0,5.7,88.2,1014.5,288.6,1.8,2.9,296.6,0.00,3.9,10.0,"02:12:08",1
"20/03/12","02:30",0.0,5.9,88.3,1014.9,292.2,1.8,2.8,306.3,0.00,4.2,10.1,"02:28:00",1
"20/03/12","02:40",0.0,6.1,88.3,1015.2,293.4,1.7,2.9,301.4,0.00,4.4,10.1,"02:37:12",1
"20/03/12","02:50",0.0,6.2,88.1,1015.2,313.0,1.8,2.7,321.5,0.00,4.4,10.0,"02:43:52",1
"20/03/12","03:00",0.0,6.1,87.7,1015.2,294.0,1.6,3.2,320.8,0.00,4.3,9.9,"02:59:04",1
"20/03/12","03:10",0.0,6.2,87.1,1015.4,289.8,2.2,3.4,267.3,0.00,4.3,9.9,"03:02:24",1
"20/03/12","03:20",0.0,6.3,86.1,1015.4,304.1,2.3,3.3,333.2,0.00,4.2,10.1,"03:12:16",1
"20/03/12","03:30",0.0,6.2,85.1,1015.6,317.4,3.0,4.8,342.6,0.00,3.9,9.9,"03:26:00",1
"20/03/12","03:40",0.0,6.1,84.3,1015.6,314.1,2.8,4.1,322.4,0.00,3.7,10.1,"03:31:04",1
"20/03/12","03:50",0.0,6.1,83.8,1015.9,313.8,2.3,3.5,334.1,0.00,3.6,9.8,"03:48:32",1
"20/03/12","04:00",0.0,6.1,83.6,1015.9,323.8,2.5,3.5,316.1,0.00,3.6,10.0,"03:56:40",1
"20/03/12","04:10",0.0,6.0,83.4,1015.4,324.2,2.6,3.9,324.9,0.00,3.4,9.7,"04:08:24",1
"20/03/12","04:20",0.0,6.1,83.3,1015.6,326.4,2.7,4.3,333.8,0.00,3.5,9.7,"04:13:36",1
"20/03/12","04:30",0.0,6.0,83.2,1015.6,328.9,2.6,4.3,333.6,0.00,3.4,9.9,"04:26:40",1
"20/03/12","04:40",0.0,6.0,83.1,1015.6,316.2,2.5,3.7,320.2,0.00,3.4,9.9,"04:33:12",1
"20/03/12","04:50",0.0,6.0,83.0,1015.9,324.3,2.8,4.2,329.4,0.00,3.4,10.1,"04:40:32",1
"20/03/12","05:00",0.0,5.8,83.0,1016.1,326.9,3.0,4.0,325.9,0.00,3.2,9.6,"04:51:20",1
"20/03/12","05:10",0.0,5.5,83.3,1015.6,327.8,2.7,3.9,327.0,0.00,2.9,9.7,"05:05:20",1
"20/03/12","05:20",0.0,5.3,83.8,1016.1,326.7,2.8,4.1,322.1,0.00,2.8,9.7,"05:12:24",1
"20/03/12","05:30",0.0,4.8,84.2,1015.9,325.1,2.5,3.7,316.5,0.00,2.4,9.7,"05:21:28",1
"20/03/12","05:40",0.0,4.5,85.0,1016.1,329.0,3.0,4.2,336.5,0.00,2.2,9.5,"05:38:24",1
"20/03/12","05:50",0.0,4.3,85.9,1016.4,327.1,2.6,4.2,334.9,0.00,2.2,9.4,"05:46:00",1
"20/03/12","06:00",0.0,4.0,86.7,1016.4,331.4,2.6,3.9,340.0,0.00,2.0,9.5,"05:52:00",1
"20/03/12","06:10",0.0,3.9,87.6,1016.1,331.8,3.6,5.9,339.9,0.00,2.1,9.4,"06:06:40",1
"20/03/12","06:20",0.0,4.1,88.2,1016.4,327.8,4.5,7.2,318.1,0.00,2.4,9.2,"06:11:04",1
"20/03/12","06:30",0.0,4.0,88.6,1016.4,321.2,4.0,5.5,339.5,0.00,2.3,9.5,"06:21:44",1
"20/03/12","06:40",0.0,3.9,88.9,1016.1,329.7,4.4,5.9,330.0,0.00,2.3,9.1,"06:33:04",1
"20/03/12","06:50",0.0,3.7,89.1,1016.6,333.3,3.4,4.7,335.4,0.00,2.1,9.2,"06:42:08",1
"20/03/12","07:00",0.0,3.5,89.4,1016.4,331.2,2.8,4.4,330.7,0.00,2.0,9.3,"06:54:40",1
"20/03/12","07:10",0.0,3.5,89.7,1016.6,324.5,2.6,3.9,341.5,0.00,2.0,9.0,"07:02:16",1
"20/03/12","07:20",0.0,3.6,90.0,1016.8,270.6,0.8,1.9,316.1,0.00,2.2,9.2,"07:10:08",1
"20/03/12","07:30",0.0,4.1,90.0,1016.8,297.3,1.7,2.6,326.5,0.00,2.6,9.0,"07:24:40",1
"20/03/12","07:40",0.0,4.5,90.1,1017.3,290.0,2.1,3.3,326.3,0.01,3.1,9.0,"07:34:40",1
"20/03/12","07:50",0.0,5.0,89.8,1017.5,319.1,0.8,2.2,337.0,0.02,3.5,9.1,"07:40:08",1
"20/03/12","08:00",0.0,5.8,89.7,1017.8,267.5,1.2,1.8,281.0,0.04,4.3,9.0,"07:57:10",1
"20/03/12","08:10",0.0,6.3,89.0,1018.0,302.5,1.2,2.6,328.4,0.05,4.7,9.0,"08:08:10",1
"20/03/12","08:20",0.0,6.9,88.4,1018.2,307.9,1.3,2.5,323.1,0.08,5.2,9.1,"08:10:32",1
"20/03/12","08:30",0.0,7.4,87.4,1018.2,321.0,0.8,2.0,317.0,0.10,5.5,9.1,"08:22:24",1
"20/03/12","08:40",0.0,8.1,85.9,1018.7,298.3,1.0,1.7,334.5,0.13,5.9,9.2,"08:39:52",1
"20/03/12","08:50",0.0,8.4,83.7,1018.7,325.5,0.8,1.9,336.7,0.16,5.8,9.1,"08:42:16",1
"20/03/12","09:00",0.0,8.4,80.9,1018.7,139.1,0.7,1.7,80.8,0.19,5.4,9.2,"08:54:48",1
"20/03/12","09:10",0.0,8.7,77.7,1018.7,321.3,1.2,3.1,277.4,0.22,5.1,9.4,"09:09:12",1
"20/03/12","09:20",0.0,9.0,72.7,1018.7,232.7,1.7,4.1,248.3,0.25,4.4,9.6,"09:10:16",1
"20/03/12","09:30",0.0,9.8,68.4,1019.2,295.3,1.8,4.1,331.7,0.27,4.3,9.8,"09:25:04",1
"20/03/12","09:40",0.0,10.2,66.4,1018.7,275.5,1.8,3.3,257.2,0.30,4.3,9.9,"09:35:44",1
"20/03/12","09:50",0.0,10.1,63.2,1018.7,294.0,2.2,4.5,328.8,0.33,3.5,9.9,"09:42:16",1
"20/03/12","10:00",0.0,10.7,61.8,1018.7,296.7,1.5,3.5,332.3,0.35,3.7,10.4,"09:55:12",1
"20/03/12","10:10",0.0,10.5,59.8,1018.7,22.6,1.8,4.0,110.0,0.38,3.1,10.6,"10:01:28",1
"20/03/12","10:20",0.0,10.7,53.4,1018.2,9.0,1.6,5.2,3.1,0.41,1.7,10.7,"10:19:28",1
"20/03/12","10:30",0.0,10.8,49.9,1018.5,14.3,1.8,4.2,340.3,0.43,0.8,10.8,"10:21:12",1
"20/03/12","10:40",0.0,11.4,48.4,1018.5,2.4,1.3,4.7,341.6,0.45,0.9,10.9,"10:35:20",1
"20/03/12","10:50",0.0,11.4,51.2,1018.7,347.8,2.3,5.4,318.4,0.47,1.7,11.2,"10:41:20",1
"20/03/12","11:00",0.0,11.9,49.6,1018.2,60.5,1.1,2.4,52.6,0.48,1.7,11.3,"10:59:36",1
"20/03/12","11:10",0.0,12.5,46.9,1018.0,326.0,0.8,3.1,323.3,0.50,1.5,11.6,"11:09:52",1
"20/03/12","11:20",0.0,12.2,47.8,1018.2,318.4,1.7,3.3,335.5,0.52,1.5,12.0,"11:16:08",1
"20/03/12","11:30",0.0,12.5,48.5,1018.0,181.5,1.1,3.6,202.0,0.53,2.0,12.1,"11:26:32",1
"20/03/12","11:40",0.0,12.6,46.8,1018.2,218.1,2.1,4.0,233.6,0.54,1.6,12.2,"11:38:32",1
"20/03/12","11:50",0.0,12.4,47.8,1018.0,259.6,2.1,3.5,226.7,0.55,1.7,12.6,"11:40:02",1
"20/03/12","12:00",0.0,12.7,48.7,1017.8,221.9,1.5,2.9,197.9,0.56,2.2,12.7,"11:51:12",1
"20/03/12","12:10",0.0,13.0,45.7,1017.5,63.3,1.1,2.7,347.8,0.56,1.6,12.9,"12:08:40",1
"20/03/12","12:20",0.0,13.7,46.8,1017.3,332.2,1.1,2.4,330.9,0.57,2.6,13.1,"12:14:32",1
"20/03/12","12:30",0.0,13.8,46.4,1017.5,257.5,1.2,2.9,255.6,0.57,2.6,13.4,"12:29:44",1
"20/03/12","12:40",0.0,13.3,47.8,1017.3,230.9,2.3,4.1,204.9,0.57,2.5,13.5,"12:36:24",1
"20/03/12","12:50",0.0,13.6,46.9,1017.1,304.6,2.3,4.5,334.5,0.57,2.5,13.6,"12:44:48",1
"20/03/12","13:00",0.0,13.9,46.6,1017.1,236.3,1.6,3.2,252.5,0.57,2.7,13.9,"12:50:02",1
"20/03/12","13:10",0.0,14.0,43.0,1017.1,258.0,2.1,3.6,234.3,0.58,1.7,14.2,"13:02:00",1
"20/03/12","13:20",0.0,14.0,38.2,1017.3,225.1,2.1,4.3,232.6,0.58,0.0,14.3,"13:15:12",1
"20/03/12","13:30",0.0,14.6,36.4,1017.3,299.5,2.1,4.9,331.0,0.57,-0.1,14.3,"13:24:16",1
"20/03/12","13:40",0.0,14.8,35.5,1016.8,284.4,2.5,5.1,320.5,0.57,-0.3,14.6,"13:37:36",1
"20/03/12","13:50",0.0,14.5,38.3,1016.6,307.6,3.0,5.9,327.8,0.56,0.5,14.8,"13:43:28",1
"20/03/12","14:00",0.0,14.7,37.4,1016.6,310.7,2.7,5.4,338.2,0.55,0.4,14.7,"13:58:56",1
"20/03/12","14:10",0.0,15.0,37.8,1015.9,303.4,2.3,5.1,339.5,0.54,0.8,15.1,"14:07:20",1
"20/03/12","14:20",0.0,15.7,38.3,1015.9,300.0,1.6,4.2,345.5,0.52,1.6,15.2,"14:10:32",1
"20/03/12","14:30",0.0,15.1,40.4,1016.1,209.6,2.7,6.7,339.9,0.51,1.8,15.2,"14:20:24",1
"20/03/12","14:40",0.0,14.9,41.1,1016.1,217.6,2.3,4.7,231.6,0.49,1.8,15.2,"14:39:12",1
"20/03/12","14:50",0.0,15.5,40.6,1015.9,238.1,1.5,3.4,192.9,0.47,2.2,15.4,"14:43:28",1
"20/03/12","15:00",0.0,15.2,41.6,1015.6,201.9,1.8,4.9,191.7,0.46,2.3,15.6,"14:56:32",1
"20/03/12","15:10",0.0,15.5,41.7,1015.9,180.4,1.7,4.5,191.8,0.44,2.6,15.6,"15:00:08",1
"20/03/12","15:20",0.0,15.3,42.7,1015.6,210.7,2.3,3.9,148.4,0.42,2.7,15.4,"15:15:52",1
"20/03/12","15:30",0.0,15.3,41.0,1015.9,221.6,2.1,4.5,207.9,0.39,2.2,15.8,"15:29:52",1
"20/03/12","15:40",0.0,15.1,41.8,1015.9,198.8,2.6,5.5,210.4,0.37,2.3,15.4,"15:37:28",1
"20/03/12","15:50",0.0,15.0,41.0,1016.4,219.8,2.3,5.0,194.4,0.35,1.9,15.5,"15:46:32",1
"20/03/12","16:00",0.0,15.4,41.7,1015.9,229.2,2.1,4.3,202.1,0.32,2.5,15.5,"15:52:32",1
"20/03/12","16:10",0.0,15.1,41.7,1015.6,215.1,2.3,4.3,232.2,0.29,2.2,15.5,"16:02:24",1
"20/03/12","16:20",0.0,15.0,40.2,1015.6,176.7,2.1,4.2,173.3,0.27,1.6,15.4,"16:18:32",1
"20/03/12","16:30",0.0,14.8,39.5,1015.9,200.9,2.6,6.0,194.9,0.24,1.2,15.4,"16:28:24",1
"20/03/12","16:40",0.0,14.9,40.2,1015.4,195.0,2.1,4.0,165.2,0.21,1.5,15.3,"16:38:56",1
"20/03/12","16:50",0.0,14.7,40.5,1015.4,163.4,2.5,4.7,137.0,0.18,1.5,15.2,"16:42:16",1
"20/03/12","17:00",0.0,14.6,40.8,1014.9,185.0,2.3,4.7,117.6,0.16,1.5,15.1,"16:50:16",1
"20/03/12","17:10",0.0,14.6,40.7,1015.4,228.1,2.0,4.0,238.0,0.13,1.4,15.0,"17:09:52",1
"20/03/12","17:20",0.0,14.5,41.5,1015.4,212.0,1.8,3.7,228.7,0.10,1.6,14.9,"17:11:28",1
"20/03/12","17:30",0.0,14.3,39.9,1015.4,207.0,2.0,3.4,186.4,0.08,0.9,14.5,"17:29:38",1
"20/03/12","17:40",0.0,14.1,40.1,1015.4,199.2,2.1,3.4,196.4,0.06,0.8,14.7,"17:31:04",1
"20/03/12","17:50",0.0,14.0,41.5,1015.4,217.8,2.0,3.2,214.3,0.04,1.2,14.5,"17:41:04",1
"20/03/12","18:00",0.0,13.9,42.3,1015.2,241.7,1.3,2.5,235.5,0.02,1.3,14.3,"17:50:08",1
"20/03/12","18:10",0.0,13.6,43.1,1016.1,235.5,1.5,3.4,235.4,0.01,1.3,14.0,"18:01:28",1
"20/03/12","18:20",0.0,13.2,46.8,1015.9,273.4,1.5,2.1,242.1,0.00,2.1,14.0,"18:12:16",1
"20/03/12","18:30",0.0,12.2,50.5,1016.4,302.2,1.7,2.6,337.2,0.00,2.3,14.1,"18:21:38",1
"20/03/12","18:40",0.0,11.4,54.3,1016.4,299.8,1.8,2.7,314.5,0.00,2.5,13.8,"18:37:50",1
"20/03/12","18:50",0.0,10.6,58.4,1016.4,314.3,1.8,2.7,319.1,0.00,2.8,13.6,"18:45:56",1
"20/03/12","19:00",0.0,10.1,61.7,1016.4,326.5,2.2,3.3,341.3,0.00,3.1,13.6,"18:53:52",1
"20/03/12","19:10",0.0,9.6,64.1,1016.4,319.5,1.8,3.1,327.4,0.00,3.2,13.5,"19:07:04",1
"20/03/12","19:20",0.0,9.2,65.3,1016.8,289.0,0.6,1.4,290.1,0.00,3.1,13.4,"19:11:52",1
"20/03/12","19:30",0.0,8.8,66.9,1016.4,290.8,1.7,3.6,308.4,0.00,3.0,13.1,"19:29:36",1
"20/03/12","19:40",0.0,8.7,68.4,1016.8,314.7,2.3,3.7,324.5,0.00,3.3,13.1,"19:30:16",1
"20/03/12","19:50",0.0,8.4,69.1,1017.1,281.7,1.2,2.1,264.8,0.00,3.1,12.9,"19:40:02",1
"20/03/12","20:00",0.0,8.3,69.8,1017.3,277.5,2.1,2.6,294.4,0.00,3.2,12.7,"19:51:04",1
"20/03/12","20:10",0.0,7.9,70.6,1017.3,314.5,2.3,3.4,323.1,0.00,2.9,12.4,"20:06:00",1
"20/03/12","20:20",0.0,7.6,71.7,1017.1,299.5,2.2,3.5,315.4,0.00,2.9,12.7,"20:12:16",1
"20/03/12","20:30",0.0,7.6,72.3,1017.1,277.2,1.8,2.6,278.8,0.00,3.0,12.5,"20:28:08",1
"20/03/12","20:40",0.0,7.5,72.7,1017.3,284.1,2.3,3.1,302.1,0.00,3.0,12.3,"20:35:36",1
"20/03/12","20:50",0.0,7.2,73.2,1017.3,296.6,2.0,2.2,295.9,0.00,2.8,12.4,"20:41:36",1
"20/03/12","21:00",0.0,7.1,73.8,1017.5,294.6,2.0,2.4,317.2,0.00,2.8,12.0,"20:50:16",1
"20/03/12","21:10",0.0,6.9,74.6,1017.8,300.9,2.2,2.9,318.9,0.00,2.7,12.1,"21:07:44",1
"20/03/12","21:20",0.0,6.6,75.2,1017.3,320.7,1.8,2.5,321.2,0.00,2.6,11.8,"21:10:24",1
"20/03/12","21:30",0.0,6.2,76.0,1017.5,301.7,1.7,2.1,313.8,0.00,2.3,11.8,"21:24:16",1
"20/03/12","21:40",0.0,6.2,76.8,1017.3,285.4,2.2,3.1,264.6,0.00,2.5,11.6,"21:33:06",1
"20/03/12","21:50",0.0,6.2,77.5,1017.3,297.4,2.1,2.8,308.3,0.00,2.6,11.5,"21:43:52",1
"20/03/12","22:00",0.0,5.9,78.2,1017.3,312.7,1.8,2.4,311.8,0.00,2.4,11.5,"21:52:48",1
"20/03/12","22:10",0.0,5.6,78.7,1017.1,309.0,1.6,2.1,318.8,0.00,2.2,11.4,"22:02:16",1
"20/03/12","22:20",0.0,5.6,79.7,1017.1,300.3,2.0,3.2,320.1,0.00,2.4,11.2,"22:19:28",1
"20/03/12","22:30",0.0,5.4,80.5,1017.5,294.3,2.0,3.5,321.3,0.00,2.4,11.1,"22:26:24",1
"20/03/12","22:40",0.0,5.4,81.3,1017.3,289.3,1.8,3.1,311.3,0.00,2.5,11.2,"22:35:42",1
"20/03/12","22:50",0.0,5.4,81.9,1017.3,297.8,2.1,3.1,319.6,0.00,2.6,11.0,"22:47:52",1
"20/03/12","23:00",0.0,5.2,82.3,1017.1,320.4,2.1,3.1,319.3,0.00,2.5,11.1,"22:51:56",1
"20/03/12","23:10",0.0,4.8,82.8,1016.8,308.1,1.5,2.0,340.4,0.00,2.2,10.7,"23:00:16",1
"20/03/12","23:20",0.0,5.0,83.4,1017.5,308.1,2.1,3.6,322.6,0.00,2.5,10.7,"23:14:48",1
"20/03/12","23:30",0.0,4.6,83.6,1017.3,306.4,1.6,1.9,311.1,0.00,2.1,10.6,"23:23:28",1
"20/03/12","23:40",0.0,4.5,84.1,1017.3,310.6,1.8,2.2,321.5,0.00,2.1,10.5,"23:37:18",1
"20/03/12","23:50",0.0,4.1,84.7,1017.1,322.9,1.7,2.4,321.4,0.00,1.8,10.3,"23:42:24",1
"20/03/12","24:00",0.0,4.0,85.1,1017.1,300.7,1.3,1.7,318.4,0.00,1.8,10.5,"23:57:12",1
